Wind_Speed
25 25 33 34 32 34 35 35 34 32 34 34 33 34 33 32 34 32 31 30 28 27 25 22 23 21 20 21 21 21 21 22 24 25 25 26 26 28 28 28 29 32 33
23 27 37 39 35 36 35 33 34 35 32 33 32 31 31 32 32 31 28 25 25 23 23 23 23 22 22 23 24 24 24 26 26 27 29 29 30 32 32 30 32 34 35
25 28 35 41 41 42 37 34 34 38 33 29 28 28 26 28 30 28 28 26 23 22 20 23 23 24 25 26 27 27 27 28 29 29 31 32 33 33 34 35 36 35 31
27 29 32 37 43 41 38 37 37 35 39 33 32 31 34 32 32 36 31 27 27 24 24 25 26 27 29 30 31 32 32 33 33 34 32 34 35 36 39 40 37 31 28
28 34 28 38 38 42 38 38 41 36 32 34 34 31 31 39 38 45 41 33 34 26 25 28 27 28 33 34 34 35 36 35 35 37 37 35 36 38 40 40 35 31 28
32 28 37 37 41 42 42 40 39 43 30 26 32 48 42 35 35 40 42 42 36 34 25 27 29 30 34 36 37 37 37 37 37 38 40 40 39 40 37 36 33 31 30
28 32 29 41 39 40 38 37 38 39 33 37 23 19 22 40 40 35 29 21 21 26 29 28 29 34 35 36 37 38 39 38 39 39 40 40 36 36 34 35 32 29 30
27 30 32 36 40 37 34 39 39 38 37 31 30 27 23 20 22 22 19 21 25 28 29 29 30 33 35 36 38 39 39 39 39 38 38 36 35 35 34 31 28 27 29
30 30 35 34 43 44 42 41 40 37 36 34 35 29 33 31 27 22 28 23 30 32 29 32 35 37 37 38 38 39 37 37 37 36 34 34 34 33 29 27 26 28 31
27 27 30 33 39 34 37 47 46 48 31 28 26 28 31 33 31 30 30 31 32 33 34 35 35 35 34 34 34 33 33 33 33 33 33 30 30 29 27 28 28 30 31
20 22 26 29 32 35 35 33 43 37 34 23 23 32 32 32 31 31 31 33 34 35 36 36 36 35 34 32 32 31 31 31 31 31 31 31 29 29 29 29 30 31 30
20 22 22 25 26 28 34 35 33 34 33 34 33 31 33 34 34 34 35 36 37 38 37 37 37 35 34 33 33 33 33 32 32 32 32 33 32 31 31 31 30 28 27
18 18 17 19 20 20 22 28 36 39 41 39 33 33 33 33 34 35 36 36 36 36 35 35 35 34 34 34 35 34 34 35 34 34 33 32 33 32 31 29 26 24 23
12 15 18 19 20 22 23 26 30 33 35 34 32 33 34 33 34 35 36 34 34 32 33 33 33 33 33 33 34 34 34 34 33 33 33 31 30 29 27 24 22 21 20
9 12 14 15 16 17 19 22 25 27 29 31 32 32 33 33 32 31 31 30 30 31 32 33 33 33 33 33 34 34 33 33 32 31 29 27 26 25 23 21 20 16 13
16 15 15 15 16 16 16 19 22 24 26 27 28 27 26 26 26 26 27 28 29 30 32 33 34 34 34 33 33 33 31 30 29 27 25 24 23 22 20 18 16 13 13
18 17 16 17 17 17 18 19 20 20 21 21 21 22 22 23 25 26 27 29 30 32 32 33 33 34 33 32 31 30 28 27 25 23 22 21 21 18 17 15 14 14 13
16 17 17 17 18 18 17 17 17 17 18 19 20 21 23 24 25 27 29 31 32 33 32 33 32 31 31 29 28 27 25 23 22 22 20 20 18 16 15 14 13 13 14
14 16 19 20 20 19 17 16 15 16 18 19 20 22 23 25 27 29 31 34 33 32 32 32 31 28 28 25 26 25 24 22 21 20 18 17 16 15 14 14 14 14 15
17 17 19 21 19 17 15 14 15 17 19 21 23 24 25 26 28 31 33 33 32 31 30 29 28 27 25 24 24 23 21 21 20 18 17 17 16 14 14 15 15 14 14
18 16 17 18 17 16 17 16 17 19 22 25 25 26 27 29 30 32 33 34 35 34 28 27 26 25 24 22 22 21 20 21 19 19 18 17 16 14 16 16 15 14 14
19 18 17 17 17 18 19 19 21 23 26 26 26 28 30 31 32 34 33 33 31 29 27 24 24 23 23 23 22 22 21 21 20 19 18 17 16 16 16 15 15 15 14
18 19 19 19 20 20 21 23 23 23 25 26 27 29 30 30 30 31 30 27 26 25 24 23 23 23 24 23 23 23 22 22 21 19 18 18 17 16 16 15 15 15 15
13 17 20 22 22 23 23 22 22 22 25 26 27 24 24 25 26 25 23 21 21 22 22 20 21 22 22 22 23 22 22 22 21 19 19 19 17 16 15 15 15 15 15
14 18 18 19 21 21 22 22 23 24 21 22 25 25 23 22 22 20 20 20 20 21 20 20 21 21 22 23 24 23 23 22 21 20 20 19 17 16 16 16 16 16 16
12 13 15 21 24 26 29 26 22 22 21 20 19 21 22 21 21 20 20 20 21 22 21 21 21 22 24 23 23 23 23 23 22 21 20 19 18 17 17 17 17 17 17
Wind_Direction
220 224 232 238 235 231 228 227 228 228 228 225 224 228 227 234 238 240 241 241 242 243 242 245 250 254 258 262 265 268 272 275 279 283 288 290 293 296 301 302 303 302 302
219 214 234 233 239 237 232 230 221 226 228 227 226 226 224 224 228 231 236 234 232 231 234 243 248 252 256 260 264 268 272 276 278 281 284 290 294 299 298 301 302 299 301
221 211 235 231 233 240 235 232 224 224 226 225 219 212 221 228 224 220 217 219 224 230 233 240 247 252 258 263 267 269 273 277 277 280 283 290 292 294 297 299 301 301 299
219 203 231 235 228 229 230 231 232 221 225 221 226 228 227 220 214 220 219 227 226 230 244 247 254 261 264 268 270 272 276 279 280 280 282 286 289 292 293 298 298 297 294
217 214 231 237 234 235 235 231 233 228 222 227 233 231 231 235 224 227 222 224 229 231 245 251 253 262 268 268 270 272 277 277 278 280 282 282 285 290 293 294 295 294 291
217 203 225 233 229 231 230 234 240 240 230 227 236 241 231 235 243 235 230 231 232 241 253 259 267 265 266 268 270 272 273 275 277 278 280 284 286 289 291 291 294 293 291
218 214 212 230 228 229 227 229 230 240 240 254 235 251 260 252 243 256 252 244 251 255 260 263 263 265 265 266 268 270 273 275 276 278 280 283 285 287 288 289 290 288 288
221 224 223 235 234 234 227 223 217 216 222 234 233 227 239 251 256 249 255 266 266 265 265 264 266 269 271 271 271 271 271 273 276 277 280 280 282 284 285 284 282 285 287
212 220 222 223 235 229 231 232 229 226 232 239 239 251 248 235 249 261 261 244 266 271 270 268 270 274 274 272 272 272 270 270 272 273 273 274 279 280 278 279 282 285 290
223 224 226 227 232 230 230 232 233 239 226 231 240 247 252 253 253 247 247 249 255 262 268 271 273 273 273 272 269 270 271 271 270 270 270 272 274 276 278 279 283 284 286
221 226 230 229 234 231 228 232 237 248 230 245 255 253 254 253 251 251 252 257 262 267 271 273 273 272 271 270 271 270 268 267 268 270 272 273 275 275 277 280 281 283 284
231 246 240 227 228 229 229 230 236 233 237 248 256 250 249 251 253 256 260 263 266 268 269 268 267 269 270 271 271 271 272 272 272 274 274 272 276 277 277 279 280 280 280
237 231 233 226 233 236 239 237 236 236 241 249 252 248 250 252 256 259 261 262 264 266 266 267 267 267 268 269 270 270 270 271 271 271 272 272 273 275 275 275 276 275 276
231 232 234 235 238 244 245 240 238 238 240 243 246 250 255 259 262 265 266 265 265 265 265 266 266 267 268 269 270 269 269 268 268 269 270 272 272 271 270 270 272 273 270
228 227 231 234 239 241 237 235 235 237 241 246 250 255 258 261 262 263 265 266 267 270 271 269 268 267 268 269 269 269 269 269 268 268 268 268 267 266 266 266 266 257 246
233 227 227 231 233 233 232 232 235 238 242 247 252 253 254 255 258 262 265 267 270 270 271 272 272 271 268 267 267 267 268 267 266 266 264 264 262 262 260 257 241 239 251
225 224 225 228 231 235 239 242 242 242 242 245 248 252 255 258 262 266 268 271 273 273 272 271 270 268 267 267 265 263 261 262 263 261 259 258 258 255 248 230 234 245 257
227 225 226 230 236 241 244 248 250 249 249 248 249 255 262 267 271 275 278 278 277 278 276 272 269 265 264 262 259 258 260 256 254 252 252 250 245 233 222 229 239 251 260
230 224 225 231 240 245 246 243 243 248 252 255 260 264 268 274 277 280 285 282 279 277 276 271 266 263 261 257 256 254 252 250 249 246 242 235 216 214 225 237 247 256 263
232 230 229 236 243 243 239 244 253 259 262 264 264 269 275 275 280 285 286 285 286 280 273 267 261 260 257 253 248 247 248 248 242 233 218 209 214 220 233 244 252 259 267
230 230 236 237 236 234 243 255 265 271 269 268 273 276 277 279 283 287 287 287 288 286 275 261 255 251 248 248 247 246 242 238 225 213 211 213 220 228 241 250 258 265 270
228 229 229 230 237 244 249 259 271 273 272 277 276 279 280 282 285 288 287 287 283 281 275 258 252 251 249 246 244 239 231 223 216 213 216 221 228 236 246 254 262 268 272
220 224 229 236 246 256 261 266 269 272 274 279 282 284 280 281 283 286 290 282 282 281 275 258 247 245 243 239 234 226 221 218 218 217 220 227 233 240 249 258 264 268 272
226 232 240 248 253 260 264 265 268 274 277 276 280 288 284 283 286 286 288 285 282 279 271 256 245 239 234 230 225 220 218 218 219 220 224 232 238 245 253 259 264 270 276
248 244 248 253 257 260 263 265 270 274 286 277 276 285 284 285 292 295 286 282 282 281 264 250 238 231 224 220 219 219 219 220 222 225 230 236 242 249 255 261 267 271 275
263 266 264 256 263 269 266 265 269 274 281 287 281 285 284 285 287 289 285 284 279 278 264 249 238 229 222 220 218 219 221 222 225 229 235 241 247 251 257 262 266 271 276
Height
3114 3116 3119 3125 3129 3132 3135 3137 3142 3145 3147 3149 3152 3155 3158 3162 3164 3167 3169 3171 3173 3175 3177 3178 3181 3182 3183 3184 3184 3184 3185 3185 3184 3183 3183 3182 3181 3180 3179 3178 3176 3172 3170
3109 3114 3113 3119 3124 3128 3131 3134 3136 3141 3144 3146 3148 3150 3153 3155 3157 3161 3164 3166 3168 3170 3172 3174 3176 3178 3179 3179 3180 3180 3180 3180 3180 3179 3178 3177 3177 3174 3173 3174 3171 3168 3165
3104 3110 3105 3112 3118 3123 3126 3130 3132 3135 3140 3143 3144 3144 3148 3151 3154 3156 3158 3161 3163 3165 3167 3170 3172 3173 3174 3175 3176 3175 3176 3175 3175 3175 3173 3171 3170 3170 3167 3167 3166 3164 3161
3097 3104 3100 3107 3112 3116 3121 3124 3127 3130 3134 3135 3139 3141 3143 3145 3147 3150 3153 3156 3158 3160 3161 3164 3167 3169 3170 3170 3170 3170 3170 3170 3169 3168 3168 3166 3165 3163 3161 3159 3159 3158 3155
3092 3097 3098 3101 3106 3112 3115 3119 3122 3125 3128 3129 3133 3135 3138 3140 3140 3142 3145 3146 3150 3154 3155 3156 3158 3161 3163 3164 3164 3164 3164 3163 3163 3161 3161 3161 3159 3158 3155 3152 3152 3150 3149
3087 3094 3092 3095 3099 3104 3109 3113 3117 3120 3120 3125 3128 3128 3132 3132 3135 3135 3136 3141 3146 3150 3152 3153 3155 3155 3157 3157 3158 3157 3157 3156 3155 3155 3154 3153 3152 3150 3149 3146 3144 3143 3141
3081 3085 3089 3089 3094 3099 3103 3107 3110 3113 3116 3118 3123 3124 3125 3125 3126 3130 3131 3133 3138 3143 3145 3146 3146 3150 3150 3150 3150 3149 3149 3149 3148 3148 3147 3146 3145 3143 3141 3140 3138 3136 3134
3077 3080 3085 3087 3091 3095 3098 3102 3105 3109 3112 3115 3119 3119 3122 3124 3127 3129 3131 3133 3136 3138 3140 3141 3142 3143 3143 3143 3142 3141 3141 3141 3140 3140 3140 3139 3136 3136 3134 3133 3132 3131 3128
3071 3075 3079 3082 3083 3090 3094 3098 3100 3104 3106 3108 3112 3115 3117 3117 3122 3124 3126 3129 3132 3133 3134 3135 3135 3135 3134 3134 3133 3133 3132 3131 3131 3132 3132 3131 3129 3129 3127 3126 3126 3125 3121
3067 3071 3074 3077 3077 3083 3086 3091 3094 3095 3099 3103 3106 3111 3113 3115 3116 3119 3121 3124 3126 3127 3127 3127 3126 3126 3125 3125 3124 3124 3124 3123 3123 3123 3123 3122 3122 3122 3121 3120 3119 3119 3116
3062 3065 3068 3071 3073 3076 3081 3084 3086 3088 3092 3095 3100 3105 3108 3109 3110 3113 3114 3116 3117 3118 3118 3118 3117 3117 3117 3116 3115 3116 3116 3116 3115 3115 3115 3114 3114 3114 3113 3112 3112 3111 3110
3059 3061 3062 3065 3068 3072 3075 3079 3082 3085 3089 3093 3095 3098 3100 3102 3104 3105 3107 3108 3108 3109 3109 3109 3108 3109 3108 3108 3108 3108 3108 3108 3107 3106 3107 3107 3106 3106 3105 3105 3104 3103 3103
3055 3057 3059 3062 3065 3067 3070 3073 3077 3081 3085 3087 3089 3092 3094 3095 3097 3097 3098 3098 3099 3099 3099 3100 3100 3100 3100 3100 3099 3099 3099 3099 3099 3099 3099 3099 3098 3098 3098 3097 3097 3096 3096
3052 3054 3057 3059 3061 3064 3066 3067 3070 3074 3078 3080 3082 3085 3087 3088 3088 3089 3090 3089 3090 3090 3091 3091 3091 3090 3090 3090 3090 3090 3090 3090 3090 3090 3090 3090 3090 3091 3091 3090 3090 3090 3091
3050 3052 3054 3056 3057 3059 3061 3064 3066 3069 3072 3074 3076 3078 3079 3080 3081 3082 3082 3082 3083 3082 3083 3082 3082 3081 3081 3082 3082 3082 3081 3082 3082 3082 3082 3082 3083 3084 3084 3085 3085 3085 3087
3047 3049 3051 3053 3054 3056 3058 3060 3063 3065 3067 3069 3070 3071 3073 3074 3075 3075 3075 3076 3075 3075 3075 3074 3074 3073 3073 3073 3072 3073 3073 3074 3074 3074 3075 3076 3077 3077 3078 3079 3081 3082 3083
3043 3045 3048 3050 3051 3053 3054 3057 3059 3061 3062 3064 3065 3066 3067 3068 3068 3068 3068 3068 3067 3067 3066 3065 3064 3065 3064 3064 3064 3065 3065 3066 3067 3067 3069 3070 3071 3072 3074 3075 3077 3079 3079
3041 3043 3045 3046 3048 3050 3052 3053 3055 3057 3058 3059 3060 3062 3062 3063 3062 3062 3061 3060 3059 3058 3056 3055 3055 3055 3056 3056 3057 3057 3059 3060 3061 3062 3063 3064 3066 3067 3070 3072 3073 3074 3075
3039 3040 3042 3043 3045 3047 3049 3051 3052 3054 3055 3056 3056 3056 3056 3056 3056 3055 3053 3051 3049 3048 3047 3046 3046 3046 3048 3048 3050 3051 3053 3054 3055 3056 3057 3060 3062 3064 3067 3069 3070 3070 3071
3035 3037 3039 3040 3042 3044 3046 3048 3049 3050 3051 3051 3051 3051 3051 3050 3049 3047 3045 3043 3040 3039 3039 3039 3038 3039 3040 3042 3043 3045 3046 3049 3051 3052 3053 3056 3059 3060 3063 3065 3066 3066 3065
3032 3034 3036 3038 3040 3041 3043 3044 3045 3046 3045 3045 3045 3044 3043 3042 3041 3039 3036 3034 3032 3029 3029 3030 3030 3032 3033 3035 3037 3039 3041 3044 3047 3049 3050 3053 3055 3056 3059 3061 3061 3060 3060
3029 3031 3033 3035 3037 3039 3039 3040 3040 3040 3040 3039 3038 3037 3036 3034 3032 3030 3028 3025 3023 3022 3020 3021 3022 3024 3027 3030 3032 3035 3037 3041 3043 3045 3047 3049 3051 3053 3055 3055 3055 3055 3055
3026 3028 3030 3032 3034 3035 3035 3035 3034 3034 3034 3033 3032 3030 3028 3027 3025 3022 3020 3018 3016 3015 3014 3014 3017 3019 3022 3025 3028 3031 3033 3036 3040 3041 3043 3045 3047 3049 3050 3050 3050 3050 3050
3024 3026 3027 3028 3029 3029 3029 3029 3029 3028 3027 3026 3025 3024 3022 3020 3018 3015 3014 3012 3011 3010 3009 3010 3011 3014 3017 3020 3023 3026 3029 3032 3035 3037 3039 3042 3043 3044 3044 3045 3045 3045 3045
3021 3022 3022 3023 3023 3024 3024 3024 3023 3022 3021 3019 3018 3017 3015 3014 3012 3010 3009 3008 3007 3006 3005 3005 3007 3009 3012 3015 3018 3021 3025 3027 3030 3033 3035 3037 3038 3038 3039 3040 3040 3040 3040
3018 3018 3018 3018 3018 3018 3018 3018 3017 3016 3015 3014 3012 3011 3009 3008 3007 3005 3004 3002 3002 3000 3000 3000 3003 3005 3008 3011 3014 3017 3020 3023 3025 3028 3030 3031 3032 3033 3034 3034 3034 3035 3035